| time (UTC) | temp C | wind direction | speed KPH | gust KPH | rain 1hr cm | rain 24hr cm | rain mn cm | humidity % | barometer mb |
| 20260505092949 | 16 | 44 | 1.6 | 3.2 | 0.00 | 0.97 | 0.97 | 91 | 1005.2 |
| 20260505092446 | 16 | 68 | 3.2 | 3.2 | 0.00 | 0.97 | 0.97 | 91 | 1005.3 |
| 20260505091944 | 16 | 108 | 6.4 | 9.7 | 0.00 | 0.97 | 0.97 | 91 | 1005.0 |
| 20260505091441 | 16 | 193 | 8.0 | 11.3 | 0.00 | 0.97 | 0.97 | 92 | 1004.6 |
| 20260505090939 | 16 | 136 | 3.2 | 4.8 | 0.00 | 0.97 | 0.97 | 92 | 1004.5 |
| 20260505090437 | 16 | 218 | 6.4 | 11.3 | 0.00 | 0.97 | 0.97 | 91 | 1004.6 |
| 20260505085934 | 16 | 168 | 6.4 | 6.4 | 0.13 | 0.97 | 0.97 | 92 | 1005.0 |
| 20260505085431 | 16 | 119 | 3.2 | 4.8 | 0.30 | 0.97 | 0.97 | 92 | 1005.1 |
| 20260505084930 | 16 | 176 | 3.2 | 4.8 | 0.18 | 0.94 | 0.94 | 92 | 1005.3 |
| 20260505084428 | 16 | 210 | 3.2 | 4.8 | 0.18 | 0.94 | 0.94 | 92 | 1005.4 |
| 20260505083926 | 16 | 212 | 11.3 | 14.5 | 0.00 | 0.91 | 0.91 | 92 | 1005.3 |
| 20260505083423 | 16 | 173 | 6.4 | 6.4 | 0.00 | 0.91 | 0.91 | 92 | 1005.2 |
| 20260505082919 | 16 | 192 | 8.0 | 11.3 | 0.00 | 0.91 | 0.91 | 92 | 1004.8 |
| 20260505082415 | 16 | 157 | 6.4 | 9.7 | 0.00 | 0.91 | 0.91 | 92 | 1004.4 |
| 20260505081912 | 16 | 90 | 8.0 | 14.5 | 0.00 | 0.91 | 0.91 | 92 | 1004.5 |
| 20260505081408 | 16 | 118 | 8.0 | 11.3 | 0.00 | 0.91 | 0.91 | 93 | 1004.4 |
| 20260505080905 | 16 | 60 | 4.8 | 4.8 | 0.00 | 0.91 | 0.91 | 94 | 1004.4 |
| 20260505080401 | 16 | 211 | 9.7 | 16.1 | 0.00 | 0.91 | 0.91 | 94 | 1004.3 |
| 20260505075857 | 16 | 176 | 11.3 | 14.5 | 0.00 | 0.91 | 0.91 | 94 | 1003.6 |
| 20260505075354 | 16 | 106 | 9.7 | 12.9 | 0.13 | 0.91 | 0.91 | 94 | 1003.6 |
| 20260505074851 | 16 | 189 | 9.7 | 9.7 | 0.13 | 0.91 | 0.91 | 95 | 1004.1 |
| 20260505074348 | 16 | 154 | 16.1 | 24.1 | 0.13 | 0.91 | 0.91 | 95 | 1004.0 |
| 20260505073845 | 16 | 127 | 11.3 | 16.1 | 0.00 | 0.89 | 0.89 | 95 | 1004.7 |
| 20260505073343 | 16 | 142 | 9.7 | 16.1 | 0.00 | 0.89 | 0.89 | 95 | 1004.8 |
| 20260505072840 | 16 | 194 | 8.0 | 11.3 | 0.00 | 0.89 | 0.89 | 95 | 1005.1 |
| 20260505072336 | 16 | 171 | 8.0 | 14.5 | 0.00 | 0.89 | 0.89 | 95 | 1005.4 |
| 20260505071832 | 16 | 79 | 8.0 | 11.3 | 0.18 | 0.89 | 0.89 | 95 | 1006.3 |
| 20260505071329 | 16 | 73 | 3.2 | 4.8 | 0.30 | 0.89 | 0.89 | 94 | 1006.8 |
| 20260505070827 | 16 | 107 | 3.2 | 4.8 | 0.43 | 0.86 | 0.86 | 94 | 1006.6 |
| 20260505070323 | 16 | 247 | 4.8 | 6.4 | 0.97 | 0.84 | 0.84 | 94 | 1007.3 |
| 20260505065818 | 16 | 128 | 6.4 | 11.3 | 0.97 | 0.79 | 0.79 | 93 | 1007.1 |
| 20260505065316 | 16 | 209 | 4.8 | 6.4 | 0.79 | 0.71 | 0.71 | 93 | 1008.0 |
| 20260505064813 | 16 | 183 | 3.2 | 3.2 | 0.71 | 0.64 | 0.64 | 93 | 1007.9 |
| 20260505064310 | 16 | 13 | 0.0 | 1.6 | 0.71 | 0.58 | 0.58 | 92 | 1007.8 |
| 20260505063808 | 16 | 304 | 4.8 | 6.4 | 0.89 | 0.53 | 0.53 | 91 | 1007.9 |
| 20260505063304 | 16 | 225 | 6.4 | 9.7 | 0.97 | 0.46 | 0.46 | 91 | 1007.9 |
| 20260505062800 | 17 | 275 | 8.0 | 11.3 | 0.89 | 0.38 | 0.38 | 90 | 1008.0 |
| 20260505062258 | 17 | 196 | 11.3 | 14.5 | 0.61 | 0.30 | 0.30 | 88 | 1008.3 |
| 20260505061754 | 17 | 259 | 6.4 | 9.7 | 0.48 | 0.23 | 0.23 | 87 | 1007.7 |
| 20260505061252 | 17 | 266 | 6.4 | 6.4 | 0.79 | 0.20 | 0.20 | 85 | 1007.0 |
| 20260505060750 | 17 | 171 | 8.0 | 9.7 | 0.79 | 0.15 | 0.15 | 82 | 1006.8 |
| 20260505060247 | 18 | 293 | 4.8 | 4.8 | 0.43 | 0.08 | 0.08 | 79 | 1006.6 |
| 20260505055742 | 19 | 125 | 12.9 | 14.5 | 0.13 | 0.03 | 0.03 | 76 | 1006.2 |
| 20260505055238 | 19 | 200 | 14.5 | 16.1 | 0.13 | 0.03 | 0.03 | 72 | 1006.0 |
| 20260505054736 | 20 | 129 | 9.7 | 14.5 | 0.00 | 0.00 | 0.00 | 69 | 1005.4 |
| 20260505054234 | 20 | 192 | 8.0 | 9.7 | 0.00 | 0.00 | 0.00 | 68 | 1005.4 |
| 20260505053732 | 20 | 171 | 9.7 | 12.9 | 0.00 | 0.00 | 0.00 | 66 | 1005.5 |
| 20260505053228 | 20 | 167 | 4.8 | 6.4 | 0.00 | 0.00 | 0.00 | 65 | 1005.5 |
| 20260505052725 | 20 | 148 | 4.8 | 6.4 | 0.00 | 0.00 | 0.00 | 64 | 1005.2 |
| 20260505052222 | 20 | 89 | 3.2 | 3.2 | 0.00 | 0.00 | 0.00 | 64 | 1005.2 |
| 20260505051719 | 20 | 176 | 4.8 | 6.4 | 0.00 | 0.00 | 0.00 | 64 | 1005.4 |
| 20260505051217 | 20 | 170 | 3.2 | 3.2 | 0.00 | 0.00 | 0.00 | 64 | 1005.4 |
| 20260505050715 | 20 | 84 | 6.4 | 11.3 | 0.00 | 0.00 | 0.00 | 65 | 1005.5 |
| 20260505050213 | 20 | 143 | 9.7 | 12.9 | 0.00 | 0.00 | 0.00 | 65 | 1005.5 |
| 20260505041648 | 20 | 172 | 8.0 | 9.7 | 0.00 | 0.00 | 0.00 | 65 | 1005.5 |
| 20260505041146 | 20 | 176 | 6.4 | 9.7 | 0.00 | 0.00 | 0.00 | 65 | 1005.3 |
| 20260505040643 | 20 | 138 | 4.8 | 6.4 | 0.00 | 0.00 | 0.00 | 65 | 1005.5 |
| 20260505040140 | 20 | 108 | 3.2 | 3.2 | 0.00 | 0.00 | 0.00 | 65 | 1005.3 |
| 20260505035636 | 20 | 108 | 6.4 | 6.4 | 0.00 | 0.00 | 0.00 | 64 | 1005.5 |
| 20260505035132 | 20 | 152 | 3.2 | 3.2 | 0.00 | 0.00 | 0.00 | 64 | 1005.9 |
| 20260505034629 | 20 | 84 | 3.2 | 3.2 | 0.00 | 0.00 | 0.00 | 64 | 1006.2 |
| 20260505034126 | 21 | 228 | 9.7 | 12.9 | 0.00 | 0.00 | 0.00 | 64 | 1006.2 |
| 20260505033622 | 21 | 117 | 6.4 | 6.4 | 0.00 | 0.00 | 0.00 | 63 | 1006.1 |
| 20260505033121 | 21 | 189 | 11.3 | 14.5 | 0.00 | 0.00 | 0.00 | 63 | 1005.9 |
| 20260505032619 | 21 | 218 | 6.4 | 6.4 | 0.00 | 0.00 | 0.00 | 63 | 1006.0 |
| 20260505032115 | 21 | 166 | 8.0 | 11.3 | 0.00 | 0.00 | 0.00 | 63 | 1006.0 |
| 20260505031612 | 21 | 310 | 4.8 | 6.4 | 0.00 | 0.00 | 0.00 | 63 | 1006.0 |
| 20260505031108 | 21 | 191 | 8.0 | 12.9 | 0.00 | 0.00 | 0.00 | 62 | 1005.9 |
| 20260505030605 | 21 | 117 | 3.2 | 3.2 | 0.00 | 0.00 | 0.00 | 62 | 1005.7 |
| 20260505025557 | 21 | 255 | 4.8 | 4.8 | 0.00 | 0.00 | 0.00 | 61 | 1005.9 |
| 20260505025056 | 21 | 90 | 6.4 | 9.7 | 0.00 | 0.00 | 0.00 | 61 | 1005.9 |
| 20260505024553 | 21 | 73 | 3.2 | 3.2 | 0.00 | 0.00 | 0.00 | 60 | 1005.8 |
| 20260505024050 | 21 | 50 | 1.6 | 1.6 | 0.00 | 0.00 | 0.00 | 60 | 1005.9 |
| 20260505023547 | 21 | 132 | 8.0 | 11.3 | 0.00 | 0.00 | 0.00 | 59 | 1005.9 |
| 20260505023045 | 21 | 197 | 8.0 | 12.9 | 0.00 | 0.00 | 0.00 | 59 | 1005.7 |
| 20260505022542 | 22 | 113 | 3.2 | 3.2 | 0.00 | 0.00 | 0.00 | 59 | 1005.7 |
| 20260505022039 | 22 | 108 | 9.7 | 12.9 | 0.00 | 0.00 | 0.00 | 58 | 1005.9 |
| 20260505021536 | 22 | 142 | 6.4 | 9.7 | 0.00 | 0.00 | 0.00 | 58 | 1005.8 |
| 20260505021033 | 22 | 129 | 6.4 | 6.4 | 0.00 | 0.00 | 0.00 | 58 | 1005.7 |
| 20260505020532 | 22 | 118 | 6.4 | 9.7 | 0.00 | 0.00 | 0.00 | 58 | 1005.9 |
| 20260505020030 | 22 | 139 | 4.8 | 4.8 | 0.00 | 0.00 | 0.00 | 58 | 1005.6 |
| 20260505015527 | 22 | 146 | 6.4 | 6.4 | 0.00 | 0.00 | 0.00 | 57 | 1005.5 |
| 20260505015023 | 22 | 200 | 4.8 | 6.4 | 0.00 | 0.00 | 0.00 | 58 | 1005.5 |
| 20260505014520 | 22 | 167 | 6.4 | 9.7 | 0.00 | 0.00 | 0.00 | 57 | 1005.5 |
| 20260505014018 | 22 | 102 | 6.4 | 9.7 | 0.00 | 0.00 | 0.00 | 57 | 1005.5 |
| 20260505013515 | 22 | 172 | 6.4 | 6.4 | 0.00 | 0.00 | 0.00 | 57 | 1005.6 |
| 20260505013012 | 22 | 183 | 4.8 | 6.4 | 0.00 | 0.00 | 0.00 | 58 | 1005.6 |
| 20260505012510 | 22 | 163 | 8.0 | 11.3 | 0.00 | 0.00 | 0.00 | 57 | 1005.4 |
| 20260505012007 | 22 | 179 | 6.4 | 6.4 | 0.00 | 0.00 | 0.00 | 57 | 1005.2 |
| 20260505011502 | 22 | 44 | 1.6 | 1.6 | 0.00 | 0.00 | 0.00 | 57 | 1005.4 |
| 20260505011000 | 22 | 176 | 4.8 | 6.4 | 0.00 | 0.00 | 0.00 | 56 | 1005.5 |
| 20260505010455 | 22 | 146 | 6.4 | 9.7 | 0.00 | 0.00 | 0.00 | 55 | 1005.6 |
| 20260505005951 | 23 | 227 | 9.7 | 12.9 | 0.00 | 0.00 | 0.00 | 55 | 1005.5 |
| 20260505005448 | 23 | 124 | 9.7 | 11.3 | 0.00 | 0.00 | 0.00 | 54 | 1005.4 |
| 20260505004946 | 23 | 225 | 8.0 | 11.3 | 0.00 | 0.00 | 0.00 | 54 | 1005.4 |
| 20260505004442 | 23 | 161 | 6.4 | 6.4 | 0.00 | 0.00 | 0.00 | 54 | 1005.1 |
| 20260505003939 | 23 | 71 | 4.8 | 6.4 | 0.00 | 0.00 | 0.00 | 54 | 1005.1 |
| 20260505003436 | 23 | 204 | 8.0 | 11.3 | 0.00 | 0.00 | 0.00 | 54 | 1005.1 |
| 20260505002932 | 23 | 217 | 11.3 | 16.1 | 0.00 | 0.00 | 0.00 | 53 | 1005.1 |
| 20260505002429 | 23 | 202 | 11.3 | 16.1 | 0.00 | 0.00 | 0.00 | 53 | 1005.4 |
| 20260505001927 | 23 | 202 | 12.9 | 16.1 | 0.00 | 0.00 | 0.00 | 52 | 1005.2 |
| 20260505001425 | 23 | 228 | 14.5 | 17.7 | 0.00 | 0.00 | 0.00 | 52 | 1005.3 |
| 20260505000922 | 24 | 205 | 6.4 | 6.4 | 0.00 | 0.00 | 0.00 | 52 | 1005.2 |
| 20260505000420 | 24 | 182 | 8.0 | 9.7 | 0.00 | 0.00 | 0.00 | 51 | 1004.8 |
| 20260504235916 | 24 | 263 | 9.7 | 12.9 | 0.00 | 0.00 | 0.00 | 51 | 1004.9 |
| 20260504235414 | 24 | 238 | 8.0 | 11.3 | 0.00 | 0.00 | 0.00 | 50 | 1005.0 |
| 20260504234909 | 24 | 170 | 11.3 | 16.1 | 0.00 | 0.00 | 0.00 | 50 | 1005.0 |
| 20260504234407 | 25 | 228 | 17.7 | 22.5 | 0.00 | 0.00 | 0.00 | 50 | 1004.8 |
| 20260504233903 | 25 | 230 | 8.0 | 9.7 | 0.00 | 0.00 | 0.00 | 50 | 1004.8 |
| 20260504233359 | 25 | 155 | 8.0 | 11.3 | 0.00 | 0.00 | 0.00 | 50 | 1004.9 |
| 20260504232856 | 25 | 127 | 6.4 | 9.7 | 0.00 | 0.00 | 0.00 | 50 | 1004.8 |
| 20260504232353 | 25 | 248 | 6.4 | 9.7 | 0.00 | 0.00 | 0.00 | 49 | 1004.8 |
| 20260504231850 | 25 | 38 | 9.7 | 12.9 | 0.00 | 0.00 | 0.00 | 48 | 1005.0 |
| 20260504231346 | 25 | 136 | 11.3 | 14.5 | 0.00 | 0.00 | 0.00 | 47 | 1004.9 |
| 20260504230843 | 25 | 203 | 17.7 | 22.5 | 0.00 | 0.00 | 0.00 | 47 | 1005.1 |
| 20260504230340 | 25 | 258 | 12.9 | 16.1 | 0.00 | 0.00 | 0.00 | 47 | 1005.1 |
| 20260504225839 | 26 | 206 | 12.9 | 17.7 | 0.00 | 0.00 | 0.00 | 47 | 1004.9 |
| 20260504225335 | 26 | 73 | 8.0 | 11.3 | 0.00 | 0.00 | 0.00 | 47 | 1005.0 |
| 20260504224833 | 26 | 166 | 9.7 | 12.9 | 0.00 | 0.00 | 0.00 | 47 | 1004.9 |
| 20260504224329 | 26 | 132 | 6.4 | 9.7 | 0.00 | 0.00 | 0.00 | 47 | 1004.7 |
| 20260504223826 | 26 | 242 | 9.7 | 14.5 | 0.00 | 0.00 | 0.00 | 47 | 1004.7 |
| 20260504223321 | 26 | 131 | 12.9 | 20.9 | 0.00 | 0.00 | 0.00 | 47 | 1004.6 |
| 20260504222818 | 26 | 130 | 8.0 | 11.3 | 0.00 | 0.00 | 0.00 | 47 | 1004.6 |
| 20260504222315 | 26 | 235 | 3.2 | 4.8 | 0.00 | 0.00 | 0.00 | 48 | 1004.5 |
| 20260504221814 | 26 | 231 | 8.0 | 11.3 | 0.00 | 0.00 | 0.00 | 46 | 1004.8 |
| 20260504221310 | 26 | 192 | 14.5 | 20.9 | 0.00 | 0.00 | 0.00 | 46 | 1004.7 |
| 20260504220807 | 26 | 284 | 14.5 | 22.5 | 0.00 | 0.00 | 0.00 | 47 | 1004.6 |
| 20260504220304 | 27 | 212 | 16.1 | 24.1 | 0.00 | 0.00 | 0.00 | 46 | 1004.7 |
| 20260504215801 | 27 | 213 | 8.0 | 14.5 | 0.00 | 0.00 | 0.00 | 45 | 1004.5 |
| 20260504215257 | 27 | 197 | 9.7 | 12.9 | 0.00 | 0.00 | 0.00 | 45 | 1004.9 |
| 20260504214753 | 27 | 229 | 6.4 | 9.7 | 0.00 | 0.00 | 0.00 | 44 | 1004.9 |
| 20260504214250 | 27 | 208 | 3.2 | 6.4 | 0.00 | 0.00 | 0.00 | 44 | 1004.9 |
| 20260504213747 | 27 | 193 | 9.7 | 11.3 | 0.00 | 0.00 | 0.00 | 44 | 1004.9 |
| 20260504213243 | 27 | 156 | 11.3 | 17.7 | 0.00 | 0.00 | 0.00 | 44 | 1004.9 |
| 20260504212740 | 27 | 350 | 14.5 | 17.7 | 0.00 | 0.00 | 0.00 | 43 | 1004.7 |
| 20260504212237 | 27 | 254 | 3.2 | 6.4 | 0.00 | 0.00 | 0.00 | 44 | 1004.9 |
| 20260504211734 | 27 | 141 | 8.0 | 9.7 | 0.00 | 0.00 | 0.00 | 44 | 1004.9 |
| 20260504211230 | 27 | 215 | 6.4 | 9.7 | 0.00 | 0.00 | 0.00 | 44 | 1005.0 |
| 20260504210728 | 27 | 223 | 16.1 | 27.4 | 0.00 | 0.00 | 0.00 | 43 | 1004.9 |
| 20260504210225 | 27 | 172 | 16.1 | 25.7 | 0.00 | 0.00 | 0.00 | 43 | 1005.0 |
| 20260504205722 | 27 | 190 | 11.3 | 12.9 | 0.00 | 0.00 | 0.00 | 43 | 1005.2 |
| 20260504205220 | 27 | 195 | 9.7 | 12.9 | 0.00 | 0.00 | 0.00 | 45 | 1005.2 |
| 20260504204718 | 27 | 183 | 16.1 | 20.9 | 0.00 | 0.00 | 0.00 | 44 | 1005.4 |
| 20260504204216 | 27 | 165 | 20.9 | 29.0 | 0.00 | 0.00 | 0.00 | 43 | 1005.4 |
| 20260504203715 | 27 | 197 | 8.0 | 12.9 | 0.00 | 0.00 | 0.00 | 44 | 1005.3 |
| 20260504203212 | 27 | 211 | 14.5 | 16.1 | 0.00 | 0.00 | 0.00 | 44 | 1005.5 |
| 20260504202712 | 27 | 181 | 14.5 | 17.7 | 0.00 | 0.00 | 0.00 | 44 | 1005.6 |
| 20260504202209 | 27 | 197 | 8.0 | 12.9 | 0.00 | 0.00 | 0.00 | 44 | 1005.6 |
| 20260504201706 | 27 | 181 | 6.4 | 12.9 | 0.00 | 0.00 | 0.00 | 45 | 1005.4 |
| 20260504201203 | 27 | 189 | 12.9 | 16.1 | 0.00 | 0.00 | 0.00 | 45 | 1005.5 |
| 20260504200701 | 26 | 191 | 16.1 | 25.7 | 0.00 | 0.00 | 0.00 | 45 | 1005.9 |
| 20260504200152 | 27 | 215 | 14.5 | 20.9 | 0.00 | 0.00 | 0.00 | 44 | 1005.7 |
| 20260504195648 | 27 | 177 | 20.9 | 29.0 | 0.00 | 0.00 | 0.00 | 43 | 1005.7 |
| 20260504195144 | 27 | 207 | 4.8 | 9.7 | 0.00 | 0.00 | 0.00 | 46 | 1005.8 |
| 20260504194641 | 27 | 181 | 16.1 | 20.9 | 0.00 | 0.00 | 0.00 | 43 | 1006.0 |
| 20260504194137 | 27 | 286 | 4.8 | 4.8 | 0.00 | 0.00 | 0.00 | 45 | 1006.0 |
| 20260504193634 | 27 | 180 | 14.5 | 20.9 | 0.00 | 0.00 | 0.00 | 44 | 1006.1 |
| 20260504193132 | 26 | 70 | 6.4 | 12.9 | 0.00 | 0.00 | 0.00 | 46 | 1006.1 |
| 20260504192629 | 27 | 196 | 14.5 | 20.9 | 0.00 | 0.00 | 0.00 | 45 | 1006.2 |
| 20260504192127 | 26 | 227 | 6.4 | 9.7 | 0.00 | 0.00 | 0.00 | 45 | 1006.5 |
| 20260504191626 | 27 | 183 | 14.5 | 20.9 | 0.00 | 0.00 | 0.00 | 44 | 1006.5 |
| 20260504191121 | 27 | 2 | 1.6 | 3.2 | 0.00 | 0.00 | 0.00 | 48 | 1006.5 |
| 20260504190618 | 26 | 168 | 6.4 | 11.3 | 0.00 | 0.00 | 0.00 | 45 | 1006.5 |
| 20260504190115 | 26 | 148 | 16.1 | 24.1 | 0.00 | 0.00 | 0.00 | 45 | 1006.3 |
| 20260504185611 | 26 | 178 | 9.7 | 14.5 | 0.00 | 0.00 | 0.00 | 45 | 1006.4 |
| 20260504185108 | 26 | 224 | 20.9 | 35.4 | 0.00 | 0.00 | 0.00 | 44 | 1006.5 |
| 20260504184603 | 26 | 136 | 8.0 | 12.9 | 0.00 | 0.00 | 0.00 | 45 | 1006.3 |
| 20260504184058 | 26 | 158 | 9.7 | 16.1 | 0.00 | 0.00 | 0.00 | 45 | 1006.3 |
| 20260504183556 | 26 | 249 | 16.1 | 24.1 | 0.00 | 0.00 | 0.00 | 44 | 1006.4 |
| 20260504183054 | 26 | 256 | 14.5 | 24.1 | 0.00 | 0.00 | 0.00 | 45 | 1006.2 |
| 20260504182550 | 25 | 180 | 14.5 | 20.9 | 0.00 | 0.00 | 0.00 | 47 | 1006.1 |
| 20260504182048 | 25 | 249 | 14.5 | 17.7 | 0.00 | 0.00 | 0.00 | 46 | 1006.2 |
| 20260504181545 | 25 | 179 | 19.3 | 27.4 | 0.00 | 0.00 | 0.00 | 45 | 1006.4 |
| 20260504181043 | 26 | 249 | 14.5 | 17.7 | 0.00 | 0.00 | 0.00 | 45 | 1006.4 |
| 20260504180542 | 26 | 210 | 16.1 | 25.7 | 0.00 | 0.00 | 0.00 | 45 | 1006.4 |
| 20260504180040 | 26 | 264 | 17.7 | 24.1 | 0.00 | 0.00 | 0.00 | 45 | 1006.5 |
| 20260504175537 | 26 | 218 | 6.4 | 11.3 | 0.00 | 0.00 | 0.00 | 45 | 1006.7 |
| 20260504175034 | 25 | 239 | 9.7 | 17.7 | 0.00 | 0.00 | 0.00 | 46 | 1006.6 |
| 20260504174532 | 25 | 202 | 20.9 | 24.1 | 0.00 | 0.00 | 0.00 | 45 | 1006.6 |
| 20260504174028 | 25 | 218 | 19.3 | 24.1 | 0.00 | 0.00 | 0.00 | 45 | 1006.5 |
| 20260504173525 | 25 | 211 | 22.5 | 25.7 | 0.00 | 0.00 | 0.00 | 45 | 1006.6 |
| 20260504173023 | 25 | 194 | 9.7 | 12.9 | 0.00 | 0.00 | 0.00 | 46 | 1006.7 |
| 20260504172519 | 25 | 214 | 14.5 | 25.7 | 0.00 | 0.00 | 0.00 | 47 | 1006.7 |
| 20260504172015 | 25 | 211 | 11.3 | 20.9 | 0.00 | 0.00 | 0.00 | 47 | 1006.7 |
| 20260504171512 | 25 | 213 | 14.5 | 22.5 | 0.00 | 0.00 | 0.00 | 47 | 1006.7 |
| 20260504171009 | 25 | 163 | 14.5 | 30.6 | 0.00 | 0.00 | 0.00 | 47 | 1006.6 |
| 20260504170505 | 25 | 228 | 11.3 | 16.1 | 0.00 | 0.00 | 0.00 | 47 | 1006.7 |
| 20260504160425 | 23 | 206 | 17.7 | 27.4 | 0.00 | 0.00 | 0.00 | 48 | 1007.2 |
| 20260504150848 | 22 | 156 | 14.5 | 20.9 | 0.00 | 0.00 | 0.00 | 50 | 1007.3 |
| 20260504150345 | 22 | 183 | 11.3 | 14.5 | 0.00 | 0.00 | 0.00 | 51 | 1007.7 |
| 20260504141315 | 20 | 237 | 4.8 | 9.7 | 0.00 | 0.00 | 0.00 | 52 | 1008.2 |
| 20260504140812 | 20 | 207 | 17.7 | 22.5 | 0.00 | 0.00 | 0.00 | 52 | 1008.2 |
| 20260504140308 | 20 | 188 | 6.4 | 12.9 | 0.00 | 0.00 | 0.00 | 52 | 1008.5 |
| 20260504130737 | 18 | 187 | 9.7 | 14.5 | 0.00 | 0.00 | 0.00 | 55 | 1008.7 |
| 20260504130232 | 18 | 169 | 8.0 | 11.3 | 0.00 | 0.00 | 0.00 | 55 | 1008.6 |
| 20260504120156 | 17 | 194 | 6.4 | 11.3 | 0.00 | 0.00 | 0.00 | 58 | 1008.9 |
| 20260504110624 | 17 | 203 | 6.4 | 9.7 | 0.00 | 0.00 | 0.00 | 56 | 1009.0 |
| 20260504110120 | 17 | 165 | 9.7 | 12.9 | 0.00 | 0.00 | 0.00 | 56 | 1009.2 |
| 20260504100545 | 18 | 90 | 4.8 | 6.4 | 0.00 | 0.00 | 0.00 | 53 | 1009.2 |